Location: Cabo di Oristano
(39.8500°N, 8.4333°E)
Time: 18:13:40
(UTC+00:00)

Cosmos 2360 Rocket - Pass Details

Date: 31 January 2023
Orbit: 832 x 846 km, 71.0° (Epoch: 30 March)

Event Time Altitude Azimuth Distance (km) Brightness Sun altitude
Reaches altitude 10° 05:44:50 10° 308° (NW) 2,472 4.1 -10.1°
Exits shadow 05:44:50 10° 308° (NW) 2,472 4.1 -10.1°
Maximum altitude 05:49:05 22° 259° (W) 1,759 3.4 -9.3°
Drops below altitude 10° 05:53:19 10° 210° (SSW) 2,460 4.5 -8.5°
Sets 05:56:15 0° 196° (SSW) 3,389 5.4 -8.0°
